Find Starlink 34640

NORAD ID: 65092 Int'l Des: 2025-167 Owner: SPXS Country: US Constellation: starlink operational
LEOCIRCULAR

リアルタイム位置

3D地球を読み込み中...

Starlink 34640について

説明を読み込み中...

次回通過

Passes for default location (London). Set your location on the main map for personalized predictions.

高度履歴

Loading altitude history...

軌道要素

1 65092U 25167Q 26105.04621964 .00012940 00000-0 44812-3 0 9997
2 65092 53.1603 217.9638 0000542 106.2643 253.8418 15.30208309 39049
Epoch: Apr 15, 2026 • Age: 9 hours

現在のステータス

高度 490.4 km
速度 7.62 km/s
衛星直下点 -44.29°S, 89.39°E
打ち上げ日 Aug 4, 2025
運用期間 0.6 years
タイプ internet

技術仕様

分類 Payload
質量 575.00 kg
乾燥質量 530.00 kg
総質量 575.00 kg
長さ 0.30 m
直径 4.10 m
スパン 29.00 m
形状 Box + pan
製造者 SPXS
バスタイプ Starlink V2MO
フェーズステータス In Orbit
所有者/国 SPXS/US

Most Searched